Location: Gro� Glienicke
(52.4675°N, 13.1079°E)
Time: 02:56:06
(UTC+00:00)

Cosmos 2360 Rocket - Pass Details

Date: 06 July 2020
Orbit: 832 x 847 km, 71.0° (Epoch: 04 August)

Event Time Altitude Azimuth Distance (km) Brightness Sun altitude
Rises 20:17:12 0° 211° (SSW) 3,380 5.1 -5.8°
Reaches altitude 10° 20:19:37 10° 212° (SSW) 2,452 4.4 -6.1°
Maximum altitude 20:25:16 84° 301° (WNW) 855 2.3 -6.6°
Drops below altitude 10° 20:30:59 10° 30° (NNE) 2,477 5.0 -7.1°
Sets 20:33:27 0° 32° (NNE) 3,417 5.7 -7.4°
